Date String (YYYY-MM-DD hh:mm:ss) UTC,Instrument flags,Ambient pressure (hPa),Sample flow (lpm),Bypass flow (lpm),Sample temperature (°C),Ambient temperature (°C),ASC tube jacket temperature (°C),LED temperature (°C),Box temperature (°C),Sample RH (%),Span deviation,Mass concentration (μg/m³),Mass concentration (μg/m³),Mass concentration (μg/m³)
DateTimeUTC,F1_M11,P_M11,Q1_M11,Q2_M11,T1_M11,T2_M11,T3_M11,T4_M11,T5_M11,U1_M11,ZSPAN_M11,X0_M11,X2_M11,X1_M11
2021-08-21 07:00:00,,0829.5,5.00,0.00,29.9,29.0,00.0,39.0,31.7,21.2,0002.4,0027.68,0019.65,0018.85
2021-08-21 07:01:00,,0829.5,4.99,0.00,29.9,29.0,00.0,39.0,31.7,21.2,0002.4,0027.41,0019.66,0018.86
2021-08-21 07:02:00,,0829.5,4.99,0.00,29.9,29.1,00.0,39.0,31.7,21.3,0002.4,0027.66,0019.67,0018.90
2021-08-21 07:03:00,,0829.5,4.99,0.00,29.9,29.1,00.0,39.0,31.8,21.3,0002.5,0028.07,0019.72,0018.95
2021-08-21 07:04:00,,0829.5,5.01,0.00,30.0,29.1,00.0,39.0,31.8,21.3,0002.4,0028.82,0019.78,0019.01
2021-08-21 07:05:00,,0829.5,4.99,0.00,30.0,29.1,00.0,39.0,31.8,21.4,0002.5,0029.09,0019.78,0019.02
2021-08-21 07:06:00,,0829.5,4.99,0.00,30.0,29.2,00.0,39.1,31.8,21.4,0002.6,0029.61,0019.87,0019.07
2021-08-21 07:07:00,,0829.5,5.00,0.00,30.0,29.2,00.0,39.1,31.9,21.3,0002.6,0028.98,0019.84,0019.06
2021-08-21 07:08:00,,0829.5,5.00,0.00,30.0,29.2,00.0,39.1,31.9,21.5,0002.6,0028.79,0019.79,0019.04
2021-08-21 07:09:00,,0829.5,4.99,0.00,30.1,29.3,00.0,39.1,31.9,21.5,0002.6,0029.16,0019.80,0019.02
2021-08-21 07:10:00,,0829.5,4.99,0.00,30.1,29.3,00.0,39.1,31.9,21.5,0002.5,0029.18,0019.80,0019.01
2021-08-21 07:11:00,,0829.4,5.01,0.00,30.1,29.3,00.0,39.1,31.9,21.4,0002.6,0029.37,0019.83,0019.03
2021-08-21 07:12:00,,0829.5,5.01,0.00,30.1,29.3,00.0,39.2,32.0,21.4,0002.5,0029.44,0019.83,0019.05
2021-08-21 07:13:00,,0829.6,5.00,0.00,30.1,29.3,00.0,39.2,32.0,21.4,0002.4,0028.77,0019.87,0019.05
2021-08-21 07:14:00,,0829.5,5.00,0.00,30.2,29.3,00.0,39.2,32.0,21.5,0002.2,0028.33,0019.85,0019.02
2021-08-21 07:15:00,,0829.5,5.00,0.00,30.2,29.4,00.0,39.2,32.0,21.5,0002.3,0027.63,0019.83,0018.99
2021-08-21 07:16:00,,0829.6,5.00,0.00,30.2,29.4,00.0,39.2,32.0,21.5,0002.2,0027.62,0019.89,0019.01
2021-08-21 07:17:00,,0829.5,5.00,0.00,30.2,29.4,00.0,39.3,32.0,21.5,0002.1,0027.36,0019.87,0019.00
2021-08-21 07:18:00,,0829.6,4.99,0.00,30.2,29.4,00.0,39.3,32.1,21.6,0002.0,0027.28,0019.83,0018.97
2021-08-21 07:19:00,,0829.6,5.00,0.00,30.2,29.5,00.0,39.3,32.0,21.6,0002.1,0027.94,0019.84,0018.98
2021-08-21 07:20:00,,0829.6,5.01,0.00,30.3,29.5,00.0,39.3,32.1,21.5,0002.1,0027.86,0019.85,0018.99
2021-08-21 07:21:00,,0829.6,5.00,0.00,30.3,29.5,00.0,39.3,32.1,21.4,0002.2,0027.82,0019.85,0018.98
2021-08-21 07:22:00,,0829.7,4.99,0.00,30.3,29.2,00.0,39.4,32.0,21.4,0002.2,0027.59,0019.77,0018.91
2021-08-21 07:23:00,,0829.7,5.01,0.00,30.2,27.2,00.0,39.3,31.5,21.3,0002.1,0027.21,0019.66,0018.78
2021-08-21 07:24:00,,0829.7,4.99,0.00,30.0,26.3,00.0,39.3,31.3,21.5,0002.1,0027.07,0019.49,0018.65
2021-08-21 07:25:00,,0829.7,5.01,0.00,29.9,26.5,00.0,39.2,31.3,21.8,0002.2,0026.85,0019.38,0018.56
2021-08-21 07:26:00,,0829.7,5.01,0.00,29.8,26.9,00.0,39.2,31.3,21.8,0002.2,0026.68,0019.24,0018.45
2021-08-21 07:27:00,,0829.8,5.00,0.00,29.8,27.3,00.0,39.1,31.3,21.9,0002.1,0026.08,0019.01,0018.27
2021-08-21 07:28:00,,0829.8,4.99,0.00,29.8,27.6,00.0,39.1,31.4,21.9,0002.2,0025.59,0018.88,0018.15
2021-08-21 07:29:00,,0829.8,5.01,0.00,29.8,27.8,00.0,39.1,31.4,21.8,0002.3,0025.45,0018.77,0018.04
2021-08-21 07:30:00,,0829.8,5.02,0.00,29.8,28.1,00.0,39.0,31.4,21.9,0002.2,0024.66,0018.60,0017.89
2021-08-21 07:31:00,,0829.8,4.98,0.00,29.8,28.2,00.0,39.0,31.5,21.9,0002.2,0024.35,0018.45,0017.75
2021-08-21 07:32:00,,0829.8,5.00,0.00,29.8,28.4,00.0,39.0,31.5,21.9,0002.0,0024.15,0018.30,0017.64
2021-08-21 07:33:00,,0829.9,5.00,0.00,29.8,28.5,00.0,39.0,31.5,21.8,0002.1,0024.72,0018.17,0017.53
2021-08-21 07:34:00,,0829.9,5.01,0.00,29.8,28.6,00.0,39.0,31.6,21.7,0002.1,0025.14,0018.12,0017.49
2021-08-21 07:35:00,,0829.8,4.99,0.00,29.8,28.6,00.0,39.0,31.6,21.7,0002.2,0025.48,0018.12,0017.43
2021-08-21 07:36:00,,0829.9,5.00,0.00,29.9,28.7,00.0,39.0,31.7,21.7,0002.3,0025.72,0018.04,0017.33
2021-08-21 07:37:00,,0829.9,5.00,0.00,29.9,28.8,00.0,39.0,31.7,21.6,0002.3,0026.14,0017.97,0017.29
2021-08-21 07:38:00,,0829.9,5.01,0.00,29.9,28.8,00.0,39.0,31.7,21.6,0002.4,0026.24,0017.93,0017.24
2021-08-21 07:39:00,,0829.9,4.98,0.00,29.9,28.8,00.0,39.0,31.7,21.5,0002.5,0025.98,0017.79,0017.14
2021-08-21 07:40:00,,0829.9,5.01,0.00,29.9,28.9,00.0,39.0,31.7,21.5,0002.6,0026.09,0017.74,0017.08
2021-08-21 07:41:00,,0829.8,4.99,0.00,29.9,28.9,00.0,39.0,31.7,21.4,0002.7,0026.34,0017.72,0017.02
2021-08-21 07:42:00,,0829.8,5.01,0.00,30.0,28.9,00.0,39.1,31.8,21.5,0002.8,0026.32,0017.65,0016.98
2021-08-21 07:43:00,,0829.9,4.99,0.00,30.0,29.0,00.0,39.1,31.7,21.4,0002.9,0026.32,0017.59,0016.89
2021-08-21 07:44:00,,0829.9,5.00,0.00,30.0,29.0,00.0,39.1,31.8,21.3,0002.8,0025.49,0017.54,0016.82
2021-08-21 07:45:00,,0829.9,4.99,0.00,30.0,29.1,00.0,39.1,31.8,21.3,0002.8,0025.18,0017.47,0016.76
2021-08-21 07:46:00,,0830.0,5.01,0.00,30.0,29.1,00.0,39.1,31.8,21.2,0002.8,0024.95,0017.34,0016.69
2021-08-21 07:47:00,,0830.0,5.01,0.00,30.0,29.1,00.0,39.1,31.8,21.2,0002.7,0024.43,0017.22,0016.60
2021-08-21 07:48:00,,0830.0,4.99,0.00,30.1,29.1,00.0,39.1,31.9,21.2,0002.6,0023.84,0017.14,0016.48
2021-08-21 07:49:00,,0830.1,4.99,0.00,30.1,29.1,00.0,39.1,31.9,21.2,0002.5,0023.68,0017.06,0016.40
2021-08-21 07:50:00,,0830.1,5.01,0.00,30.1,29.1,00.0,39.2,31.9,21.2,0002.3,0023.58,0016.99,0016.34
2021-08-21 07:51:00,,0830.1,5.00,0.00,30.1,29.2,00.0,39.2,31.9,21.1,0002.2,0023.36,0016.93,0016.27
2021-08-21 07:52:00,,0830.1,4.99,0.00,30.1,29.2,00.0,39.2,31.9,21.1,0002.2,0023.42,0016.80,0016.17
2021-08-21 07:53:00,,0830.1,5.01,0.00,30.1,29.2,00.0,39.2,31.9,21.0,0002.3,0022.97,0016.67,0016.06
2021-08-21 07:54:00,,0830.1,5.01,0.00,30.1,29.3,00.0,39.2,31.9,21.1,0002.2,0022.79,0016.61,0015.99
2021-08-21 07:55:00,,0830.1,4.99,0.00,30.2,29.3,00.0,39.2,32.0,21.0,0002.3,0022.88,0016.52,0015.91
2021-08-21 07:56:00,,0830.1,5.01,0.00,30.2,29.3,00.0,39.2,32.0,21.0,0002.3,0022.60,0016.41,0015.83
2021-08-21 07:57:00,,0830.1,4.99,0.00,30.2,29.3,00.0,39.3,32.0,20.9,0002.2,0022.41,0016.34,0015.75
2021-08-21 07:58:00,,0830.1,5.00,0.00,30.2,29.3,00.0,39.3,32.0,21.0,0002.3,0022.59,0016.33,0015.70
2021-08-21 07:59:00,,0830.1,4.99,0.00,30.2,29.3,00.0,39.3,32.0,20.9,0002.4,0022.71,0016.29,0015.63
